Lewistown, MT

6:18 AM MST on December 16, 2017 (GMT -0700)
Lewistown Municipal

Weather History for KLWT - November, 2013

Change the Weather History Date:

Saturday, November 2, 2013

  Actual Average Record
Temperature  
Mean Temperature 41 °F 38 °F  
Max Temperature 56 °F 50 °F 75 °F (1903)
Min Temperature 25 °F 26 °F -10 °F (1935)
Degree Days  
Heating Degree Days 24 27  
Month to date heating degree days 51 54  
Since 1 July heating degree days 1053 1192  
Cooling Degree Days 0 0  
Month to date cooling degree days 0 0  
Year to date cooling degree days 277 210  
Moisture  
Dew Point 27 °F    
Average Humidity 58    
Maximum Humidity 84    
Minimum Humidity 32    
Precipitation  
Precipitation T in 0.03 in 0.45 in (1922)
Month to date precipitation T 0.05  
Year to date precipitation 21.48 15.53  
Snow  
Snow 0.00 in - - ()
Snow Depth 0.00 in    
Sea Level Pressure  
Sea Level Pressure 29.81 in    
Wind  
Wind Speed 8 mph (SSE)    
Max Wind Speed 21 mph    
Max Gust Speed 30 mph    
Visibility 10 miles    
Events      
T = Trace of Precipitation, MM = Missing Value Source: NWS Daily Summary

Daily Weather History Graph

Daily Weather History Graph

Search for Another Location

Airport or City:

Trip Planner

Search our weather history database for the weather conditions in past years. The results will help you decide how hot, cold, wet, or windy it might be!

Date:

Astronomy

Nov. 02, 2013 Rise Set
Actual Time 8:02 AM MDT 5:59 PM MDT
Civil Twilight 7:30 AM MDT 6:31 PM MDT
Nautical Twilight 6:54 AM MDT 7:07 PM MDT
Astronomical Twilight 6:19 AM MDT 7:43 PM MDT
Moon 7:01 AM MDT (11/2) 5:34 PM MDT (11/2)
Length of Visible Light 11h 00m
Length of Day
9h 56m
Waning Crescent, 1% of the Moon is Illuminated
Nov 2
Waning Crescent
Nov 3
New
Nov 9
First Quarter
Nov 17
Full
Nov 25
Last Quarter

Hourly Weather History & Observations

Time (MDT) Temp. Windchill Dew Point Humidity Pressure Visibility Wind Dir Wind Speed Gust Speed Precip Events Conditions
12:54 AM 28.9 °F 23.9 °F 23.0 °F 78% 30.12 in 10.0 mi SSW 4.6 mph - N/A   Partly Cloudy
1:54 AM 27.0 °F 19.5 °F 21.9 °F 81% 30.12 in 10.0 mi ESE 6.9 mph - N/A   Clear
2:54 AM 26.1 °F 20.5 °F 21.9 °F 84% 30.10 in 10.0 mi SE 4.6 mph - N/A   Clear
3:54 AM 26.1 °F 18.4 °F 21.9 °F 84% 30.07 in 10.0 mi SE 6.9 mph - N/A   Clear
4:54 AM 27.0 °F 20.5 °F 23.0 °F 85% 30.04 in 10.0 mi SE 5.8 mph - N/A   Clear
5:54 AM 28.0 °F 22.8 °F 23.0 °F 81% 30.03 in 10.0 mi SE 4.6 mph - N/A   Clear
6:54 AM 30.0 °F 21.1 °F 25.0 °F 82% 30.00 in 10.0 mi ESE 10.4 mph - N/A   Clear
7:54 AM 33.1 °F 26.1 °F 25.0 °F 72% 29.96 in 10.0 mi ESE 8.1 mph - N/A   Scattered Clouds
8:54 AM 35.1 °F 29.3 °F 26.1 °F 70% 29.95 in 10.0 mi ESE 6.9 mph - N/A   Overcast
9:54 AM 36.0 °F 30.3 °F 27.0 °F 70% 29.89 in 10.0 mi SE 6.9 mph - N/A   Overcast
10:54 AM 41.0 °F 37.1 °F 28.0 °F 60% 29.84 in 10.0 mi East 5.8 mph - N/A   Clear
11:54 AM 48.0 °F - 28.0 °F 46% 29.77 in 10.0 mi East 6.9 mph - N/A   Clear
12:54 PM 51.1 °F - 28.0 °F 41% 29.72 in 10.0 mi Calm Calm - N/A   Clear
1:54 PM 51.1 °F - 28.0 °F 41% 29.67 in 10.0 mi NE 6.9 mph - N/A   Clear
2:54 PM 51.1 °F - 28.9 °F 43% 29.65 in 10.0 mi SE 4.6 mph - N/A   Clear
3:54 PM 52.0 °F - 28.0 °F 40% 29.62 in 10.0 mi Variable 4.6 mph - N/A   Clear
4:54 PM 55.9 °F - 26.1 °F 32% 29.58 in 10.0 mi SW 16.1 mph 19.6 mph N/A   Scattered Clouds
5:54 PM 53.1 °F - 26.1 °F 35% 29.58 in 10.0 mi SW 13.8 mph - N/A   Mostly Cloudy
7:54 PM 50.0 °F - 28.0 °F 43% 29.55 in 10.0 mi SW 9.2 mph - N/A   Overcast
8:54 PM 43.0 °F 38.2 °F 28.0 °F 56% 29.57 in 10.0 mi SW 8.1 mph - N/A   Scattered Clouds
9:54 PM 44.1 °F 36.2 °F 32.0 °F 63% 29.61 in 10.0 mi WNW 18.4 mph 26.5 mph N/A   Overcast
10:54 PM 44.1 °F 39.5 °F 30.9 °F 60% 29.60 in 10.0 mi West 8.1 mph - N/A   Overcast
11:54 PM 42.1 °F 38.4 °F 33.1 °F 70% 29.59 in 10.0 mi West 5.8 mph - 0.00 in   Overcast